Showing default

LEMUR 2 KREMPEL-BRO2, 63353

Orbit data source: Space-Track

LEMUR 2 KREMPEL-BRO2, 63353 is a payload satellite owned by OroraTech (US) in SSO that was launched on Wed, 26 Mar 2025 UTC via an ELECTRON launch vehicle from the Rocket Lab Launch Complex (RLLC). Payload-class satellites include a variety of spacecraft equipped with specific instruments for various scientific and technological missions. These include communications satellites like Starlink; space stations such as the ISS; scientific satellites like the Hubble; Earth observation satellites from companies like Planet Labs, Umbra, and HawkEye 360; GPS; miniature CubeSats for education and research; and military/defense satellites.

Loading next visibility...
Identifier
63353, 2025-061C
Orbit
SSO
Country
Flag of USUS
Related business
Manufacturer
Spire/Glasgow
Mission
Operational Commercial Imaging
Bus & Motor
CUBESAT 8U, Unknown motor
Mass
~15 kg wet, ~15 kg dry
Launch date (UTC)
2025-03-26 (1 year ago)
Launch vehicle
ELECTRON
Launch site
Rocket Lab Launch Complex (RLLC)
Object type
Payload
Rocket body
Debris
Shape & HBR
Box + 2 Pan, 0.2 m
Radar Cross Section
0.070 m², Medium (>0.1 m² and < 1m²)

Expand to show TLE details & history
Last TLE update: 10 hours ago

TLE from 10 hours ago
0 LEMUR 2 KREMPEL-BRO2
1 63353U 25061C   26265.16229183  .00002645  00000-0  14647-3 0  9999
2 63353  97.5808 240.6895 0017258 283.8908  76.0404 15.14608025 82287
Epoch: 2026-09-22T03:53Z
TLE epoch observation values (Epoch: 2026-09-22T03:53:42.014Z)
Latitude
0.00002°
Longitude
-178.76729°
Altitude
522.393 km
Speed
7.604 km/s
True Right ascension
16h 02m 45s
True Declination
0° 00' 00"
Sunlit
Object was in daylight at epoch
Visualization orbit readout
Latitude
Unknown
Longitude
Unknown
Altitude
Unknown
Speed
Unknown
Apparent Right ascension
Unknown
Apparent Declination
Unknown
Sunlit
N/A
Visualization observer readout
Local Sidereal Time
06:48:46
Azimuth
Unknown
Elevation
Unknown
Doppler factor
Unknown
Orbital elements
Apogee altitude
531.053 km
Perigee altitude
507.246 km
Semi-major axis
6,897.286 km
Eccentricity
0.00173
Inclination
97.5808°
RAAN
240.6895°
Arg. of periapsis
283.8908°
True anomaly
76.23242°
Mean anomaly
76.0404°
Eccentric anomaly
76.1364°
Mean motion
3.78901 °/min
Orbital period
95.01 mins
BSTAR
0.00014647
Loading maneuver chart data...
Computing Atmospheric mass density...
Loading historical data...
Loading historical data...
Loading historical data...
Loading historical data...
Loading historical data...
Loading historical data...
Loading historical data...

Documentation

Showing up to 5 results
|